Regional Weather Roundup
Issued by NWS Wakefield, VA

Home | Current Version | Previous Version | Text Only | Print | Product List | Glossary Off
Versions: 1 2 3 4 5 6 7 8 9 10 11 12 13 14 15 16 17 18 19 20 21 22 23 24 25 26 27 28 29 30 31 32 33 34 35 36 37 38 39 40 41 42 43 44 45 46 47 48 49 50

000
ASUS41 KAKQ 020610
RWRAKQ

REGIONAL WEATHER ROUNDUP
NATIONAL WEATHER SERVICE WAKEFIELD VA
200 AM EDT TUE SEP 02 2014

Note: "fair" indicates few or no clouds below 12,000 feet with no
significant weather and/or obstructions to visibility. * = Denotes
station may not report precipitation (e.g., rain,snow,etc.),
thunder or fog.

VAZ042-051-052>054-056-020700-
NORTHERN VIRGINIA

CITY           SKY/WX    TMP DP  RH WIND       PRES   REMARKS
WASH NATIONAL  FAIR      81  72  74 S3        29.97S
DULLES         FAIR      73  72  96 S5        29.98S
FORT BELVOIR   FAIR      73  72  94 SE1       29.98R
QUANTICO       FAIR      79  70  74 CALM      29.98S
FREDERICKSBRG* FAIR      79  70  73 CALM      29.97S
STAFFORD*      FAIR      76  75  98 CALM      30.02S
WARRENTON      NOT AVBL
CULPEPER*      FAIR     N/A N/A N/A CALM      29.99F
MANASSAS*      FAIR      73  73 100 SE3       29.98S
LEESBURG*      FAIR      75  75 100 CALM      29.98S
WINCHESTER     FAIR      77  64  65 W7        29.99S
$$

VAZ048-049-060>072-079>083-020700-
CENTRAL AND SOUTH CENTRAL VIRGINIA...AND NORTH CENTRAL NORTH CAROLINA

CITY           SKY/WX    TMP DP  RH WIND       PRES   REMARKS
RICHMOND       FAIR      79  70  74 SW6       30.00F
CHESTERFIELD*  FAIR      75  63  64 CALM      30.02F
PETERSBURG*    FAIR      70  68  93 CALM      30.02S
HANOVER        FAIR      79  70  74 W3        30.02R
TAPPAHANNOCK*  FAIR      76  68  77 CALM      30.00S
CHARLOTTSVILLE FAIR      77  66  68 VRB3      30.01F
ORANGE*        FAIR      72  68  88 CALM      30.02S
LOUISA*        FAIR      75  70  83 SW5       30.00F
FARMVILLE*     FAIR      72  72 100 CALM      30.01S
SOUTH HILL*      N/A     73  73 100 CALM      30.09S
ROANOKE RAPIDS FAIR      73  72  94 SW5       30.03F
RALEIGH        FAIR      78  72  81 SW10      30.06S
$$

VAZ088>098-020700-
SOUTHEAST VIRGINIA

CITY           SKY/WX    TMP DP  RH WIND       PRES   REMARKS
NORFOLK        FAIR      80  75  84 SW10      30.01F
VIRGINIA BEACH MOCLDY    80  76  87 SW8       30.01S
NORFOLK NAVAL  FAIR      82  75  79 SW7       30.03S
WEST POINT*    FAIR      77  71  81 CALM      30.01F
NEWPORT NEWS   FAIR      82  70  66 SW5       30.01S
LANGLEY AFB    FAIR      79  74  84 SW6       30.01S
FORT EUSTIS    FAIR      79  70  74 VRB2      30.00R
WILLIAMSBURG*  FAIR      81  72  74 S5        30.02S
FRANKLIN*      FAIR      79  73  83 SW3       30.03S
WAKEFIELD      FAIR      75  69  81 S3        30.02S
$$

VAZ020-022-025-037-045-020700-
WESTERN AND SOUTHWEST VIRGINIA

CITY           SKY/WX    TMP DP  RH WIND       PRES   REMARKS
STAUNTON*      FAIR      69  64  83 SW3       30.07S
HOT SPRINGS VA FAIR      67  60  79 W14G20    30.22S
LYNCHBURG      FAIR      70  68  93 CALM      30.07S
DANVILLE       FAIR      71  67  87 CALM      30.05S
MARTINSVILLE   FAIR      68  68 100 CALM      30.09S FOG
ROANOKE        FAIR      73  65  75 CALM      30.09S
BLACKSBURG     FAIR      66  66 100 CALM      30.15F
DUBLIN*        FAIR      68  67  96 CALM      30.15S
MARION*        FAIR     N/A N/A N/A CALM      30.19F HAZE
HILLSVILLE*    FAIR      68  65  89 S3        30.18S
RICHLANDS*     FAIR      75  67  77 S5        30.17S
WISE*          FAIR      73  64  73 SW8G16    30.17S
ABINGDON*      FAIR      70  68  94 CALM      30.14F
$$

MDZ021>025-VAZ099-100-020700-
SOUTHERN MARYLAND AND THE DELMARVA PENINSULA

CITY           SKY/WX    TMP DP  RH WIND       PRES   REMARKS
PATUXENT RIVER FAIR      78  71  79 SW8       29.97S
BAY BRIDGE APT   N/A     79  77  94 NW3       29.96R
LEONARDTOWN    FAIR      77  70  78 SW5       29.99S
DOVER          FAIR      75  75 100 S5        29.94F
GEORGETOWN     FAIR      74  71  91 S8        29.98S
EASTON         FAIR      78  78 100 CALM      29.99F
CAMBRIDGE      NOT AVBL
SALISBURY      FAIR      76  72  87 SW3       29.97F
OCEAN CITY     FAIR      79  73  82 W7        29.97S
WALLOPS ISLAND FAIR      79  74  84 W6        29.99S
ACCOMACK*      NOT AVBL
$$

NCZ012>017-030>032-020700-
EASTERN NORTH CAROLINA

CITY           SKY/WX    TMP DP  RH WIND       PRES   REMARKS
ELIZABETH CITY FAIR      79  75  87 SW8       30.03S
AHOSKIE*       FAIR      76  74  93 CALM      30.04S
EDENTON*       FAIR      80  74  83 SW7       30.05S
CURRITUCK*     FAIR      80  73  79 SW3       30.04S
KILL DEVIL HLS FAIR      79  76  89 SW7       30.03F
MANTEO         FAIR      78  76  91 SW10      30.05S
CAPE HATTERAS  FAIR      80  77  90 W13       30.07S
GOLDSBORO      FAIR      78  77  98 SW7       30.04F
WASHINGTON     FAIR      77  74  91 SW7       30.06S
GREENVILLE     FAIR      79  75  89 SW9       30.07S
NEW BERN       FAIR      78  74  87 SW8       30.07F
WILMINGTON     FAIR      78  76  93 S5        30.07F
$$

VAZ048-020700-
ELSEWHERE

CITY           SKY/WX    TMP DP  RH WIND       PRES   REMARKS
HARRISBURG PA  FAIR      78  72  81 SW9       29.93F
BALTIMORE      FAIR      75  71  87 CALM      29.96R
ANNAPOLIS      FAIR      80  73  79 CALM      29.95S
ANDREWS AFB    FAIR      77  73  85 SW7       29.98R
WILMINGTON DE  FAIR      77  74  90 CALM      29.95F
PHILADELPHIA   FAIR      77  73  87 W3        29.95S
WILDWOOD NJ*   FAIR      75  70  83 SW7       29.97S
ATLANTIC CITY  FAIR      76  73  91 SW6       29.96R
HENDERSON NC   FAIR      73  69  87 CALM      30.06S
GREENSBORO     FAIR      75  68  78 SW5       30.07F
ROCKY MOUNT    FAIR      78  75  90 S7        30.05S
FAYETTEVILLE   FAIR      79  75  87 SW8       30.06F
CHARLOTTE      FAIR      73  67  81 CALM      30.08F
$$

VAZ100-020700-
MARINE

STATION/POSITION TIME  TEMP    WIND        PRES    WAVE   SWELL
                       AIR SEA DIR/SP/G            HT/PER HT/PER
                 (UTC) (F)     (DEG/KT/KT) (MB)    (FT/S) (FT/S)
44066 TX TWR #4  0600   75 74  240/ 12/ 14 1014.2F   3/ 9   2/ 9
CAPE MAY NJ      0600   76 81  220/  4/  6 1014.2S
LEWES DE         0600   76 77  230/  6/  9 1014.4S
15NM E FENWICK I 0600   77 75              1014.6F   3/ 5
OCEAN-CITY-INLET 0600   79 77  270/  7/  9 1014.6R
WACHAPREAGUE VA  0600   78 83  240/  5/  7 1015.7F
THOMAS POINT MD  0600   81 79  290/  8/ 10 1015.3S
GOOSES REEF MD   0600   81     240/  8/ 10 1014.8F
COVE POINT MD    0600   81     260/ 11/ 14 1014.5F
SOLOMONS ISLAND  0600      80                N/A
BISHOPS HEAD MD  0600   81 83  220/ 10/ 11 1014.4F
PINEY POINT MD   0600          260/  6/  8   N/A
POTOMAC MD       0600   81     250/ 12/ 14 1014.3F
CAMBRIDGE MD     0600   78 80  210/  3/  4 1014.2F
LEWISETTA VA     0600   79 82  240/  9/ 11 1014.9S
RAPPAHANNOCK LGT 0600          190/ 10/ 11 1016.3F
STINGRAY PT      0600   80     210/  6/  6   N/A
YORK RVR RNG VA  0600   81     240/  7/  8 1015.6F
YORKTOWN VA      0600   80 81  230/  9/ 12 1015.7S
JAMESTOWN VA     0600   77     270/  4/  6   N/A
DOMINION TERM VA 0600   81     230/ 11/ 14 1016.3S
KIPTOPEKE VA     0600      83  220/  8/  9   N/A
CHES BAY BRIDGE  0600   81 80  210/ 12/ 14 1015.7S
CAPE HENRY VA    0600   81     210/  8/ 10 1015.1S
CHESAPEAKE LGHT  0500   80     220/ 15/ 15 1017.1S
WILLOUBY STN VA  0600   80     240/ 10/ 11 1015.1S
S CRANEY ISL VA  0600          220/  7/ 10 1016.1S
CAPE HENRY BUOY  0600      80                N/A     2/ 8
1ST LANDING BUOY 0600   81     230/ 10/ 14 1016.0S
CAPE CHARLES BUO 0600      79                N/A     2/10   2/10
OFFSHORE WE BUOY 0600      79                N/A     3/ 4   2/ 9
64NM E OF VA BCH 0600   79 78  220/ 16/ 17 1016.3F   3/11   2/11
DUCK PIER NC     0600   80 75  220/ 11/ 16 1016.5S
44056 DUCK FRF   0600                        N/A     2/11   2/11
OREGON INLET NC  0600   81 84  210/ 15/ 19 1017.4F
HATTERAS NC      0600   81 84  230/ 14/ 18 1018.7S
DIAMOND SHLS NC  0600   81     220/ 16/ 19 1017.9R   4/ 5   2/10
CAPE LOOKOUT NC  0500   81     240/  9/ 12 1018.8R
$$


USA.gov is the U.S. government's official web portal to all federal, state and local government web resources and services.